Flag for Slovakia Weather past 2 weeks in Prešov, Slovakia

Now
68 °F

Scattered clouds.


Feels Like: 68 °F
Forecast: 63 / 85 °F
Wind: 7 mph from Southwest

Location: Kosice - Barca

Current Time: Jul 31, 2014 at 7:28:59 AM

Latest Report: Jul 31, 2014 at 7:00 AM


Visibility: 4 mi

Pressure: 29.86 "Hg

Humidity: 88%

Dew point: 64 °F

Location of PrešovLocation

Historic Weather in Prešov — Graph

°F

Prešov temperature yesterday

Maximum temperature yesterday: 81 °F (at 12:30 PM)
Minimum temperature yesterday: 63 °F (at 2:30 AM)
Average temperature yesterday: 72 °F

Past Weeks' High & Low Weather Summary

 TemperatureHumidityPressure
High86 °F (Jul 20, 12:30 PM)100% (Jul 22, 12:00 AM)30.09 "Hg (Jul 22, 12:00 AM)
Low61 °F (Jul 20, 4:30 AM)31% (Jul 19, 6:00 PM)29.77 "Hg (Jul 21, 5:00 PM)
Average72 °F71%29.93 "Hg
* Reported Jul 16 6:00 AM — Jul 31 6:30 AM, Prešov, Weather by CustomWeather, © 2014

Note: Actual official high and low records may vary slightly from our data, if they occured in-between our weather recording intervals... More about our weather records

Advertising

Prešov weather history for previous 24 hours

 ConditionsComfort  
Time TempWeatherWind HumidityBarometerVisibility
6:30 AM
Jul 31
68 °FScattered clouds.6 mph88%29.83 "Hg4 mi
6:00 AM68 °FPassing clouds.5 mph88%29.83 "HgN/A
5:30 AM68 °FClear.6 mph88%29.80 "Hg10 mi
5:00 AM68 °FClear.6 mph88%29.80 "Hg10 mi
4:30 AM66 °FClear.3 mph94%29.77 "Hg10 mi
4:00 AM66 °FClear.9 mph94%29.77 "Hg10 mi
3:30 AM68 °FClear.7 mph88%29.77 "Hg10 mi
3:00 AM68 °FClear.7 mph88%29.80 "Hg10 mi
2:30 AM68 °FClear.5 mph88%29.80 "Hg10 mi
2:00 AM66 °FClear.5 mph94%29.80 "Hg10 mi
1:30 AM68 °FClear.3 mph88%29.80 "Hg10 mi
1:00 AM68 °FClear.6 mph88%29.80 "Hg10 mi
12:30 AM68 °FClear.6 mph88%29.80 "Hg10 mi
12:00 AM68 °FClear.6 mph88%29.80 "Hg10 mi
11:30 PM
Jul 30
68 °FClear.6 mph88%29.80 "Hg10 mi
11:00 PM70 °FClear.5 mph83%29.80 "Hg10 mi
10:30 PM70 °FClear.7 mph88%29.80 "Hg10 mi
10:00 PM70 °FClear.6 mph88%29.80 "Hg10 mi
9:30 PM70 °FClear.7 mph88%29.80 "Hg10 mi
9:00 PM73 °FSunny.2 mph78%29.80 "Hg10 mi
8:30 PM75 °FSunny.3 mph74%29.83 "Hg10 mi
8:00 PM77 °FPassing clouds.3 mph69%29.80 "HgN/A
7:30 PM79 °FSunny.2 mph65%29.80 "Hg10 mi
7:00 PM79 °FSunny.5 mph65%29.80 "Hg10 mi
6:30 PM79 °FSunny.5 mph65%29.80 "Hg10 mi
6:00 PM81 °FPassing clouds.6 mph62%29.80 "HgN/A
5:30 PM81 °FPassing clouds.5 mph54%29.80 "HgN/A
5:00 PM79 °FPassing clouds.2 mph61%29.83 "HgN/A
4:30 PM79 °FPassing clouds.5 mph65%29.83 "HgN/A
4:00 PM79 °FPassing clouds.6 mph65%29.83 "HgN/A
3:30 PM75 °FScattered clouds.8 mph74%29.83 "HgN/A
3:00 PM73 °FSprinkles. Scattered clouds.9 mph83%29.83 "HgN/A
2:30 PM75 °FSprinkles. Scattered clouds.6 mph74%29.83 "HgN/A
2:00 PM77 °FScattered clouds.8 mph69%29.86 "HgN/A
1:30 PM79 °FScattered clouds.3 mph61%29.86 "HgN/A
1:00 PM79 °FPartly sunny.2 mph61%29.86 "HgN/A
12:30 PM81 °FScattered clouds.1 mph58%29.86 "HgN/A
12:00 PM79 °FScattered clouds.2 mph61%29.86 "HgN/A
11:30 AM79 °FScattered clouds.2 mph61%29.86 "HgN/A
11:00 AM79 °FScattered clouds.2 mph65%29.86 "HgN/A
10:30 AM77 °FScattered clouds.2 mph69%29.86 "HgN/A
10:00 AM75 °FPassing clouds.2 mph69%29.86 "HgN/A
9:30 AM75 °FPassing clouds.2 mph69%29.86 "HgN/A
9:00 AM75 °FPassing clouds.1 mph74%29.86 "HgN/A
8:30 AM73 °FPassing clouds.2 mph74%29.86 "HgN/A
8:00 AM72 °FSunny.1 mph83%29.86 "Hg10 mi
7:30 AM68 °FPassing clouds.3 mph88%29.86 "HgN/A
7:00 AM66 °FScattered clouds.3 mph94%29.86 "HgN/A
Weather by CustomWeather, © 2014

See weather overviewHow to use our weather pages